This is the latest recevied weather packets stored in our database for station/object KE8ZLU. If no packets are shown the sender has not sent any weather packets the latest 10 day(s).
| Time | Temp. | Humidity | Pressure | Rain* | Wind** | Luminosity | Snow |
|---|---|---|---|---|---|---|---|
| 1777847462 | 12.22° C | 64% | 1011 hPa | 0 mm | - | 29 W/m² | - |
| 1777847160 | 12.22° C | 63% | 1011.2 hPa | 0 mm | - | 28 W/m² | - |
| 1777846858 | 12.22° C | 63% | 1011.1 hPa | 0 mm | - | 36 W/m² | - |
| 1777846555 | 12.78° C | 62% | 1010.9 hPa | 0 mm | - | 42 W/m² | - |
| 1777846253 | 12.78° C | 61% | 1011 hPa | 0 mm | - | 48 W/m² | - |
| 1777845949 | 13.89° C | 58% | 1011.2 hPa | 0 mm | - | 47 W/m² | - |
| 1777845646 | 13.89° C | 58% | 1011.1 hPa | 0 mm | - | 47 W/m² | - |
| 1777845343 | 13.89° C | 57% | 1010.9 hPa | 0 mm | - | 54 W/m² | - |
| 1777845040 | 13.89° C | 56% | 1011 hPa | 0 mm | - | 60 W/m² | - |
| 1777844738 | 13.89° C | 54% | 1010.8 hPa | 0 mm | - | 61 W/m² | - |
| 1777844435 | 14.44° C | 53% | 1011 hPa | 0 mm | - | 67 W/m² | - |
| 1777844133 | 14.44° C | 52% | 1010.8 hPa | 0 mm | - | 82 W/m² | - |
| 1777843829 | 15° C | 51% | 1010.9 hPa | 0 mm | - | 103 W/m² | - |
| 1777843527 | 15° C | 50% | 1010.7 hPa | 0 mm | - | 146 W/m² | - |
| 1777843224 | 15° C | 50% | 1010.8 hPa | 0 mm | - | 466 W/m² | - |
| 1777842921 | 15° C | 51% | 1010.8 hPa | 0 mm | - | 287 W/m² | - |
| 1777842616 | 15.56° C | 49% | 1010.9 hPa | 0 mm | - | 259 W/m² | - |
| 1777842314 | 15.56° C | 47% | 1010.7 hPa | 0 mm | - | 285 W/m² | - |
| 1777842009 | 15.56° C | 48% | 1010.7 hPa | 0 mm | - | 258 W/m² | - |
| 1777841706 | 15.56° C | 49% | 1010.7 hPa | 0 mm | - | 311 W/m² | - |
| 1777841402 | 16.11° C | 48% | 1010.8 hPa | 0 mm | - | 195 W/m² | - |
| 1777841100 | 15.56° C | 49% | 1010.7 hPa | 0 mm | - | 232 W/m² | - |
| 1777840796 | 15.56° C | 47% | 1010.9 hPa | 0 mm | - | 220 W/m² | - |
| 1777840494 | 15.56° C | 46% | 1010.8 hPa | 0 mm | - | 260 W/m² | - |
| 1777840190 | 15.56° C | 47% | 1010.9 hPa | 0 mm | - | 120 W/m² | - |
* Rain latest hour (hover to see other rain measurements)
** Current wind speed in m/s (hover to see current wind gust speed)